| time (UTC) | temp F | wind direction | speed knots | gust knots | rain 1hr in | rain 24hr in | rain mn in | humidity % | barometer mb |
| 20260901063305 | 76 | 213 | 1.7 | 5.2 | 0.00 | 0.01 | 0.00 | 88 | 1016.1 |
| 20260901062806 | 76 | 239 | 4.3 | 7.8 | 0.00 | 0.01 | 0.00 | 88 | 1016.1 |
| 20260901062310 | 76 | 218 | 4.3 | 7.0 | 0.00 | 0.01 | 0.00 | 88 | 1016.2 |
| 20260901061306 | 76 | 218 | 2.6 | 6.1 | 0.00 | 0.01 | 0.00 | 88 | 1016.2 |
| 20260901060805 | 76 | 217 | 1.7 | 5.2 | 0.00 | 0.01 | 0.00 | 88 | 1016.4 |
| 20260901060306 | 76 | 207 | 2.6 | 4.3 | 0.00 | 0.01 | 0.00 | 88 | 1016.4 |
| 20260901055806 | 76 | 202 | 1.7 | 4.3 | 0.00 | 0.01 | 0.00 | 87 | 1016.5 |
| 20260901054305 | 76 | 228 | 2.6 | 6.1 | 0.00 | 0.05 | 0.00 | 87 | 1016.7 |
| 20260901051306 | 76 | 214 | 2.6 | 6.1 | 0.00 | 0.16 | 0.00 | 87 | 1016.8 |
| 20260901050306 | 75 | 221 | 2.6 | 7.8 | 0.00 | 0.17 | 0.00 | 87 | 1016.7 |
| 20260901045806 | 75 | 212 | 2.6 | 8.7 | 0.00 | 0.17 | 0.00 | 87 | 1016.8 |
| 20260901045307 | 75 | 207 | 2.6 | 6.1 | 0.00 | 0.17 | 0.00 | 87 | 1016.8 |
| 20260901044306 | 75 | 215 | 2.6 | 5.2 | 0.00 | 0.24 | 0.00 | 87 | 1016.9 |
| 20260901043806 | 75 | 219 | 2.6 | 4.3 | 0.00 | 0.34 | 0.00 | 87 | 1017.0 |
| 20260901041805 | 75 | 207 | 1.7 | 4.3 | 0.00 | 0.54 | 0.00 | 86 | 1017.0 |
| 20260901041306 | 75 | 208 | 2.6 | 5.2 | 0.00 | 0.54 | 0.00 | 86 | 1017.0 |
| 20260901040838 | 75 | 205 | 2.6 | 5.2 | 0.00 | 0.54 | 0.00 | 86 | 1017.1 |
| 20260901033808 | 75 | 198 | 1.7 | 5.2 | 0.00 | 0.54 | 0.54 | 86 | 1017.0 |
| 20260901031305 | 75 | 200 | 2.6 | 5.2 | 0.00 | 0.54 | 0.54 | 86 | 1017.4 |
| 20260901030806 | 75 | 209 | 2.6 | 4.3 | 0.00 | 0.54 | 0.54 | 86 | 1017.3 |
| 20260901025308 | 74 | 199 | 2.6 | 6.1 | 0.00 | 0.54 | 0.54 | 86 | 1017.3 |
| 20260901023306 | 74 | 195 | 3.5 | 6.1 | 0.00 | 0.54 | 0.54 | 86 | 1017.5 |
| 20260901022306 | 74 | 203 | 2.6 | 6.1 | 0.00 | 0.54 | 0.54 | 85 | 1017.5 |
| 20260901021806 | 74 | 203 | 2.6 | 5.2 | 0.00 | 0.54 | 0.54 | 85 | 1017.7 |
| 20260901020306 | 74 | 196 | 2.6 | 4.3 | 0.00 | 0.54 | 0.54 | 85 | 1017.6 |
| 20260901015306 | 74 | 185 | 1.7 | 4.3 | 0.00 | 0.54 | 0.54 | 85 | 1017.5 |
| 20260901014805 | 74 | 205 | 1.7 | 4.3 | 0.00 | 0.54 | 0.54 | 85 | 1017.4 |
| 20260901013806 | 74 | 173 | 1.7 | 2.6 | 0.00 | 0.54 | 0.54 | 84 | 1017.5 |
| 20260901013306 | 74 | 197 | 2.6 | 4.3 | 0.00 | 0.54 | 0.54 | 84 | 1017.7 |
| 20260901012806 | 74 | 190 | 1.7 | 4.3 | 0.00 | 0.54 | 0.54 | 84 | 1017.7 |
| 20260901012306 | 74 | 187 | 1.7 | 2.6 | 0.00 | 0.54 | 0.54 | 84 | 1017.7 |
| 20260901011806 | 74 | 184 | 1.7 | 4.3 | 0.00 | 0.54 | 0.54 | 83 | 1017.7 |
| 20260901011305 | 74 | 204 | 1.7 | 4.3 | 0.00 | 0.54 | 0.54 | 83 | 1017.7 |
| 20260901010805 | 74 | 173 | 1.7 | 2.6 | 0.00 | 0.54 | 0.54 | 83 | 1017.7 |
| 20260901010306 | 74 | 169 | 2.6 | 5.2 | 0.00 | 0.54 | 0.54 | 83 | 1017.6 |
| 20260901005806 | 74 | 193 | 1.7 | 2.6 | 0.00 | 0.54 | 0.54 | 82 | 1017.4 |
| 20260901004806 | 74 | 196 | 1.7 | 4.3 | 0.00 | 0.54 | 0.54 | 82 | 1017.5 |
| 20260901001306 | 74 | 187 | 0.9 | 4.3 | 0.00 | 0.54 | 0.54 | 83 | 1017.3 |
| 20260901000306 | 74 | 182 | 0.9 | 2.6 | 0.00 | 0.54 | 0.54 | 82 | 1017.2 |
| 20260831235306 | 74 | 170 | 1.7 | 4.3 | 0.00 | 0.54 | 0.54 | 82 | 1017.3 |
| 20260831234306 | 74 | 183 | 1.7 | 2.6 | 0.00 | 0.54 | 0.54 | 82 | 1017.4 |
| 20260831233805 | 74 | 191 | 2.6 | 4.3 | 0.00 | 0.54 | 0.54 | 82 | 1017.4 |
| 20260831231307 | 74 | 184 | 0.9 | 2.6 | 0.00 | 0.54 | 0.54 | 82 | 1017.5 |
| 20260831225805 | 74 | 167 | 0.9 | 2.6 | 0.00 | 0.54 | 0.54 | 81 | 1017.5 |
| 20260831225306 | 74 | 174 | 0.9 | 2.6 | 0.00 | 0.54 | 0.54 | 81 | 1017.6 |
| 20260831224306 | 74 | 165 | 0.9 | 2.6 | 0.00 | 0.54 | 0.54 | 81 | 1017.7 |
| 20260831223306 | 74 | 163 | 0.9 | 2.6 | 0.00 | 0.54 | 0.54 | 81 | 1017.8 |
| 20260831222805 | 74 | 163 | 0.9 | 2.6 | 0.00 | 0.54 | 0.54 | 81 | 1017.8 |
| 20260831221806 | 74 | 150 | 0.9 | 2.6 | 0.00 | 0.54 | 0.54 | 81 | 1017.8 |
| 20260831220305 | 75 | 137 | 0.9 | 2.6 | 0.00 | 0.54 | 0.54 | 81 | 1017.9 |
| 20260831215805 | 75 | 126 | 0.9 | 2.6 | 0.00 | 0.54 | 0.54 | 81 | 1017.8 |
| 20260831214805 | 75 | 94 | 1.7 | 5.2 | 0.00 | 0.54 | 0.54 | 80 | 1017.7 |
| 20260831214306 | 75 | 99 | 3.5 | 5.2 | 0.00 | 0.54 | 0.54 | 80 | 1017.7 |
| 20260831213805 | 75 | 109 | 4.3 | 6.1 | 0.00 | 0.54 | 0.54 | 79 | 1017.7 |
| 20260831211807 | 75 | 109 | 5.2 | 7.8 | 0.00 | 0.54 | 0.54 | 80 | 1017.8 |
| 20260831211306 | 75 | 105 | 4.3 | 7.8 | 0.00 | 0.54 | 0.54 | 79 | 1017.9 |
| 20260831204305 | 75 | 91 | 4.3 | 7.8 | 0.00 | 0.54 | 0.54 | 79 | 1018.1 |
| 20260831200806 | 75 | 97 | 3.5 | 6.1 | 0.00 | 0.54 | 0.54 | 79 | 1018.5 |
| 20260831200305 | 75 | 100 | 2.6 | 6.1 | 0.00 | 0.54 | 0.54 | 79 | 1018.5 |
| 20260831195306 | 75 | 92 | 5.2 | 6.1 | 0.00 | 0.54 | 0.54 | 78 | 1018.5 |
| 20260831194306 | 76 | 101 | 4.3 | 6.1 | 0.00 | 0.54 | 0.54 | 77 | 1018.4 |
| 20260831191306 | 76 | 77 | 4.3 | 7.8 | 0.00 | 0.54 | 0.54 | 77 | 1018.7 |
| 20260831190806 | 76 | 92 | 3.5 | 7.8 | 0.00 | 0.54 | 0.54 | 78 | 1018.7 |
| 20260831190305 | 76 | 66 | 4.3 | 7.0 | 0.00 | 0.54 | 0.54 | 77 | 1018.7 |
| 20260831185306 | 77 | 56 | 4.3 | 7.8 | 0.00 | 0.54 | 0.54 | 77 | 1018.8 |
| 20260831184805 | 77 | 47 | 5.2 | 8.7 | 0.00 | 0.54 | 0.54 | 76 | 1018.7 |
| 20260831183805 | 77 | 44 | 4.3 | 8.7 | 0.00 | 0.54 | 0.54 | 76 | 1018.8 |
| 20260831183305 | 77 | 78 | 4.3 | 8.7 | 0.00 | 0.54 | 0.54 | 76 | 1018.8 |
| 20260831182806 | 78 | 76 | 4.3 | 7.8 | 0.00 | 0.54 | 0.54 | 75 | 1018.8 |
| 20260831182306 | 79 | 84 | 3.5 | 7.8 | 0.00 | 0.54 | 0.54 | 73 | 1018.9 |
| 20260831180305 | 78 | 85 | 4.3 | 7.8 | 0.00 | 0.54 | 0.54 | 75 | 1018.9 |
| 20260831175306 | 78 | 71 | 4.3 | 8.7 | 0.00 | 0.54 | 0.54 | 75 | 1018.9 |
| 20260831174805 | 78 | 101 | 4.3 | 8.7 | 0.00 | 0.54 | 0.54 | 75 | 1018.9 |
| 20260831172805 | 78 | 79 | 4.3 | 7.8 | 0.00 | 0.54 | 0.54 | 75 | 1018.8 |
| 20260831172306 | 77 | 51 | 4.3 | 7.0 | 0.00 | 0.54 | 0.54 | 76 | 1018.9 |
| 20260831171806 | 77 | 83 | 3.5 | 7.8 | 0.00 | 0.54 | 0.54 | 76 | 1018.9 |
| 20260831171305 | 77 | 77 | 5.2 | 10.4 | 0.00 | 0.54 | 0.54 | 76 | 1019.0 |
| 20260831170306 | 77 | 94 | 4.3 | 7.8 | 0.00 | 0.54 | 0.54 | 75 | 1018.9 |
| 20260831164806 | 78 | 61 | 2.6 | 6.1 | 0.00 | 0.54 | 0.54 | 76 | 1019.0 |
| 20260831163805 | 79 | 94 | 4.3 | 7.0 | 0.00 | 0.54 | 0.54 | 75 | 1019.1 |
| 20260831163305 | 79 | 102 | 3.5 | 7.8 | 0.00 | 0.54 | 0.54 | 76 | 1019.1 |
| 20260831162306 | 79 | 104 | 5.2 | 8.7 | 0.00 | 0.54 | 0.54 | 76 | 1019.1 |
| 20260831161805 | 78 | 62 | 5.2 | 8.7 | 0.00 | 0.54 | 0.54 | 77 | 1019.1 |
| 20260831161305 | 78 | 70 | 5.2 | 8.7 | 0.00 | 0.54 | 0.54 | 77 | 1019.2 |
| 20260831160305 | 78 | 55 | 5.2 | 10.4 | 0.00 | 0.54 | 0.54 | 78 | 1019.2 |
| 20260831155306 | 77 | 80 | 7.0 | 10.4 | 0.00 | 0.54 | 0.54 | 77 | 1019.1 |
| 20260831154805 | 77 | 61 | 5.2 | 8.7 | 0.00 | 0.54 | 0.54 | 77 | 1019.0 |
| 20260831152306 | 77 | 63 | 4.3 | 8.7 | 0.00 | 0.54 | 0.54 | 77 | 1019.1 |
| 20260831151805 | 78 | 53 | 4.3 | 7.8 | 0.00 | 0.54 | 0.54 | 77 | 1019.2 |
| 20260831151305 | 78 | 80 | 4.3 | 6.1 | 0.00 | 0.54 | 0.54 | 78 | 1019.2 |
| 20260831145805 | 77 | 98 | 4.3 | 8.7 | 0.00 | 0.54 | 0.54 | 80 | 1018.9 |
| 20260831144805 | 77 | 102 | 4.3 | 7.0 | 0.00 | 0.54 | 0.54 | 82 | 1018.9 |
| 20260831143305 | 76 | 98 | 5.2 | 7.8 | 0.00 | 0.54 | 0.54 | 83 | 1019.0 |
| 20260831142806 | 76 | 84 | 4.3 | 8.7 | 0.00 | 0.54 | 0.54 | 83 | 1019.1 |
| 20260831141805 | 76 | 100 | 3.5 | 6.1 | 0.00 | 0.54 | 0.54 | 84 | 1019.1 |
| 20260831135805 | 75 | 74 | 4.3 | 10.4 | 0.00 | 0.54 | 0.54 | 82 | 1019.2 |
| 20260831135306 | 75 | 67 | 5.2 | 10.4 | 0.00 | 0.54 | 0.54 | 82 | 1019.1 |
| 20260831134805 | 75 | 74 | 3.5 | 7.0 | 0.00 | 0.54 | 0.54 | 83 | 1019.2 |
| 20260831132805 | 75 | 82 | 4.3 | 7.0 | 0.00 | 0.54 | 0.54 | 82 | 1018.9 |
| 20260831131805 | 75 | 75 | 2.6 | 5.2 | 0.00 | 0.54 | 0.54 | 82 | 1018.8 |
| 20260831131305 | 75 | 60 | 4.3 | 6.1 | 0.00 | 0.54 | 0.54 | 81 | 1018.8 |
| 20260831130305 | 75 | 72 | 4.3 | 7.8 | 0.00 | 0.54 | 0.54 | 81 | 1018.7 |
| 20260831125306 | 75 | 61 | 3.5 | 8.7 | 0.00 | 0.54 | 0.54 | 81 | 1018.8 |
| 20260831124806 | 75 | 53 | 4.3 | 8.7 | 0.00 | 0.54 | 0.54 | 81 | 1018.9 |
| 20260831123305 | 74 | 68 | 4.3 | 10.4 | 0.00 | 0.54 | 0.54 | 82 | 1018.8 |
| 20260831122306 | 74 | 54 | 4.3 | 10.4 | 0.00 | 0.54 | 0.54 | 84 | 1018.9 |
| 20260831121805 | 74 | 48 | 4.3 | 8.7 | 0.00 | 0.54 | 0.54 | 85 | 1018.9 |
| 20260831115306 | 74 | 43 | 2.6 | 4.3 | 0.00 | 0.54 | 0.54 | 86 | 1018.5 |
| 20260831113805 | 73 | 52 | 2.6 | 5.2 | 0.00 | 0.54 | 0.54 | 87 | 1018.6 |
| 20260831112805 | 73 | 40 | 2.6 | 4.3 | 0.00 | 0.54 | 0.54 | 88 | 1018.7 |
| 20260831112307 | 73 | 48 | 2.6 | 4.3 | 0.00 | 0.54 | 0.54 | 88 | 1018.6 |
| 20260831111305 | 73 | 51 | 2.6 | 2.6 | 0.00 | 0.54 | 0.54 | 88 | 1018.6 |
| 20260831110310 | 72 | 46 | 1.7 | 5.2 | 0.00 | 0.54 | 0.54 | 88 | 1018.4 |
| 20260831105806 | 72 | 18 | 0.9 | 2.6 | 0.00 | 0.54 | 0.54 | 88 | 1018.3 |
| 20260831105306 | 72 | 39 | 3.5 | 5.2 | 0.00 | 0.54 | 0.54 | 88 | 1018.3 |
| 20260831104805 | 72 | 32 | 3.5 | 5.2 | 0.00 | 0.54 | 0.54 | 89 | 1018.3 |
| 20260831102306 | 72 | 4 | 4.3 | 7.8 | 0.00 | 0.54 | 0.54 | 90 | 1017.9 |
| 20260831094805 | 72 | 12 | 4.3 | 7.8 | 0.00 | 0.54 | 0.54 | 90 | 1017.4 |
| 20260831094305 | 72 | 25 | 4.3 | 8.7 | 0.00 | 0.54 | 0.54 | 90 | 1017.6 |
| 20260831093805 | 72 | 30 | 5.2 | 10.4 | 0.00 | 0.54 | 0.54 | 90 | 1017.6 |
| 20260831093305 | 72 | 22 | 7.0 | 10.4 | 0.00 | 0.54 | 0.54 | 90 | 1017.5 |
| 20260831091806 | 72 | 32 | 5.2 | 6.1 | 0.01 | 0.54 | 0.54 | 90 | 1017.2 |
| 20260831091305 | 72 | 10 | 2.6 | 8.7 | 0.01 | 0.54 | 0.54 | 90 | 1017.3 |
| 20260831085805 | 72 | 348 | 5.2 | 6.1 | 0.01 | 0.54 | 0.54 | 91 | 1017.4 |
| 20260831085306 | 72 | 350 | 4.3 | 6.1 | 0.01 | 0.54 | 0.54 | 91 | 1017.5 |
| 20260831084306 | 72 | 319 | 0.9 | 4.3 | 0.01 | 0.54 | 0.54 | 91 | 1017.3 |
| 20260831082805 | 72 | 294 | 0.9 | 1.7 | 0.00 | 0.53 | 0.53 | 91 | 1017.4 |
| 20260831081805 | 72 | 294 | 1.7 | 2.6 | 0.00 | 0.53 | 0.53 | 91 | 1017.4 |
| 20260831075805 | 72 | 291 | 0.9 | 2.6 | 0.00 | 0.53 | 0.53 | 91 | 1017.3 |
| 20260831075306 | 72 | 289 | 0.9 | 2.6 | 0.00 | 0.53 | 0.53 | 91 | 1017.5 |
| 20260831074805 | 72 | 289 | 0.9 | 1.7 | 0.00 | 0.53 | 0.53 | 91 | 1017.4 |
| 20260831072805 | 72 | 289 | 0.9 | 2.6 | 0.00 | 0.53 | 0.53 | 91 | 1017.6 |
| 20260831071805 | 72 | 296 | 0.0 | 0.0 | 0.00 | 0.53 | 0.53 | 91 | 1017.8 |
| 20260831071307 | 72 | 296 | 0.0 | 0.0 | 0.00 | 0.53 | 0.53 | 91 | 1017.7 |
| 20260831070804 | 72 | 296 | 0.0 | 0.0 | 0.00 | 0.53 | 0.53 | 91 | 1017.8 |
| 20260831070305 | 71 | 292 | 0.0 | 1.7 | 0.00 | 0.53 | 0.53 | 91 | 1017.7 |